Content
SEND FEEDBACK

Daily
Averages
Monthly
Summary
United States of America

CEDAR CREEK, TEXAS


Home > North America > United States > Texas
Elevation: 490 feet     Latitude: 30 05N     Longitude: 097 30W

WEATHER
 
SELECT A DAY
Number of Records: 188,425;   Date Range: 7/1/96 - 9/29/14
 
SHARE

PRINT THIS DATA

[ ← Previous Day ]
WEATHER ALMANAC - JANUARY 31, 2013
[ Next Day → ]
[ °C ]   °F
Weather ElementAverageHighLow
Temperature49.2 °F69.1 °F (2:53 pm)27 °F (3:53 am)
Dewpoint20.3 °F26.1 °F (11:53 pm)17.1 °F (1:53 pm)
Humidity37.7 %78 % (3:53 am)14 % (1:53 pm)
Barometer30.24 in30.31 in (10:53 am)30.18 in (4:53 pm)
Wind Speed5.9 mph13.8 mph (11:53 am)
Wind Gust23 mph (1:53 pm)
Weather ElementAverage
Visibility10 mi
Wind DirectionSSE (169.6 °)

Weather ElementTotal
Precipitation---
Heating Degree Days17 (Base 65)
Averaged from 23 records on January 31, 2013
WEATHER CONDITIONS BREAKOUT
WIND DIRECTION BREAKOUT
WEATHER BY HOUR - JANUARY 31, 2013
[ °C ]   °F
Local TimeTemperatureDewpointHumidityBarometerVisibilityWind DirectionWind SpeedGust SpeedPrecipitationEventsConditions
1:53 AM32.0 °F21.0 °F64 %30.23 in10.0 miCalmPartly Cloudy
2:53 AM28.9 °F21.0 °F72 %30.22 in10.0 miCalmPartly Cloudy
3:53 AM27.0 °F21.0 °F78 %30.23 in10.0 miSW (220°)3.5 mphClear
4:53 AM33.1 °F19.9 °F59 %30.22 in10.0 miWSW (240°)4.6 mphClear
5:53 AM34.0 °F19.9 °F56 %30.23 in10.0 miWSW (250°)3.5 mphPartly Cloudy
6:53 AM35.1 °F19.0 °F52 %30.26 in10.0 miWSW (240°)3.5 mphPartly Cloudy
7:53 AM37.0 °F21.0 °F52 %30.27 in10.0 miCalmMostly Cloudy
8:53 AM46.0 °F23.0 °F40 %30.29 in10.0 miCalmMostly Cloudy
9:53 AM55.0 °F19.0 °F24 %30.30 in10.0 miSSW (210°)10.4 mphMostly Cloudy
10:53 AM59.0 °F18.0 °F20 %30.31 in10.0 miWSW (240°)9.2 mphMostly Cloudy
11:53 AM63.0 °F18.0 °F18 %30.29 in10.0 miSSW (210°)13.8 mph20.7 mphMostly Cloudy
12:53 PM64.9 °F18.0 °F16 %30.25 in10.0 miSW (230°)6.9 mph20.7 mphMostly Cloudy
1:53 PM68.0 °F17.1 °F14 %30.21 in10.0 miSSW (210°)12.7 mph23.0 mphMostly Cloudy
2:53 PM69.1 °F18.0 °F14 %30.19 in10.0 miSouth (190°)11.5 mph23.0 mphMostly Cloudy
3:53 PM66.9 °F17.1 °F15 %30.19 in10.0 miSSW (210°)12.7 mphScattered Clouds
4:53 PM66.9 °F17.1 °F15 %30.18 in10.0 miSW (220°)11.5 mph17.3 mphScattered Clouds
5:53 PM61.0 °F18.0 °F19 %30.19 in10.0 miSSW (210°)5.8 mphScattered Clouds
6:53 PM52.0 °F21.0 °F30 %30.22 in10.0 miSSW (200°)4.6 mphScattered Clouds
7:53 PM51.1 °F23.0 °F33 %30.25 in10.0 miSSW (200°)6.9 mphScattered Clouds
8:53 PM48.0 °F23.0 °F37 %30.26 in10.0 miSSW (210°)4.6 mphClear
9:53 PM42.1 °F24.1 °F49 %30.27 in10.0 miCalmPartly Cloudy
10:53 PM44.1 °F24.1 °F45 %30.28 in10.0 miSSW (210°)5.8 mphClear
11:53 PM46.9 °F26.1 °F44 %30.28 in10.0 miSSW (200°)4.6 mphMostly Cloudy
Hourly data recorded from KAUS, located miles away from Cedar Creek, Texas







STORIES FROM OUR PARTNERS